When you browse on this site, cookies collect data to enhance your experience and personalize the content and advertising you see.
Visit our Privacy Policy to learn more. By continuing to use the site, you agree to this use of cookies and data.
  • In France
  • List of Countries
  • For 7 days
  • Water Temperature
  • Satellite Maps
  • Weather Map
  • Weather Widgets
  • user-avatar
    Login

    Hourly Weather Barisal

    Today, 17 November, Saturday

    Time Temperature Precipitation Wind Pressure Humidity
    00:00 +23°C° 0 mm 1 mps 758 mmHg 68%
    01:00 +23°C° 0 mm 1 mps 758 mmHg 67%
    02:00 +23°C° 0 mm 1 mps 758 mmHg 66%
    03:00 +23°C° 0 mm 1 mps 758 mmHg 66%
    04:00 +23°C° 0 mm 1 mps 758 mmHg 66%
    05:00 +22°C° 0 mm 1 mps 758 mmHg 66%
    06:00 +21°C° 0 mm 2 mps 758 mmHg 62%
    07:00 +24°C° 0 mm 2 mps 759 mmHg 59%
    08:00 +26°C° 0 mm 2 mps 759 mmHg 56%
    09:00 +28°C° 0 mm 2 mps 759 mmHg 52%
    10:00 +30°C° 0 mm 2 mps 759 mmHg 48%
    11:00 +31°C° 0 mm 2 mps 758 mmHg 44%
    12:00 +34°C° 0 mm 3 mps 758 mmHg 41%
    13:00 +34°C° 0 mm 3 mps 758 mmHg 41%
    14:00 +34°C° 0 mm 3 mps 757 mmHg 41%
    15:00 +34°C° 0 mm 3 mps 757 mmHg 41%
    16:00 +31°C° 0 mm 3 mps 757 mmHg 45%
    17:00 +29°C° 0 mm 2 mps 757 mmHg 50%
    18:00 +27°C° 0 mm 2 mps 757 mmHg 54%
    19:00 +26°C° 0 mm 2 mps 757 mmHg 57%
    20:00 +26°C° 0 mm 2 mps 758 mmHg 60%
    21:00 +25°C° 0 mm 2 mps 758 mmHg 62%
    22:00 +25°C° 0 mm 2 mps 758 mmHg 63%
    23:00 +24°C° 0 mm 2 mps 758 mmHg 64%

    Tomorrow, 18 November, Sunday

    Time Temperature Precipitation Wind Pressure Humidity
    00:00 +24°C° 0 mm 2 mps 758 mmHg 65%
    01:00 +24°C° 0 mm 2 mps 758 mmHg 64%
    02:00 +23°C° 0 mm 2 mps 758 mmHg 64%
    03:00 +23°C° 0 mm 1 mps 758 mmHg 64%
    04:00 +23°C° 0 mm 2 mps 758 mmHg 65%
    05:00 +23°C° 0 mm 2 mps 758 mmHg 66%
    06:00 +23°C° 0 mm 2 mps 759 mmHg 68%
    07:00 +24°C° 0 mm 2 mps 759 mmHg 66%
    08:00 +26°C° 0 mm 2 mps 760 mmHg 63%
    09:00 +28°C° 0 mm 2 mps 760 mmHg 61%
    10:00 +29°C° 0 mm 2 mps 760 mmHg 56%
    11:00 +31°C° 0 mm 1 mps 760 mmHg 50%
    12:00 +32°C° 0 mm 1 mps 760 mmHg 45%
    13:00 +32°C° 0 mm 1 mps 759 mmHg 44%
    14:00 +32°C° 0 mm 1 mps 758 mmHg 43%
    15:00 +32°C° 0 mm 1 mps 758 mmHg 42%
    16:00 +31°C° 0 mm 1 mps 758 mmHg 46%
    17:00 +29°C° 0 mm 1 mps 758 mmHg 50%
    18:00 +27°C° 0 mm 1 mps 758 mmHg 55%
    19:00 +26°C° 0 mm 1 mps 758 mmHg 59%
    20:00 +26°C° 0 mm 1 mps 759 mmHg 64%
    21:00 +25°C° 0 mm 1 mps 759 mmHg 68%
    22:00 +25°C° 0 mm 1 mps 759 mmHg 71%
    23:00 +24°C° 0 mm 2 mps 759 mmHg 73%

    Day after tomorrow, 19 November, Monday

    Time Temperature Precipitation Wind Pressure Humidity
    00:00 +24°C° 0 mm 2 mps 759 mmHg 76%
    01:00 +24°C° 0 mm 2 mps 759 mmHg 76%
    02:00 +23°C° 0 mm 2 mps 759 mmHg 76%
    03:00 +23°C° 0 mm 1 mps 759 mmHg 76%
    04:00 +23°C° 0 mm 2 mps 759 mmHg 76%
    05:00 +23°C° 0 mm 2 mps 759 mmHg 75%
    06:00 +21°C° 0 mm 2 mps 760 mmHg 75%
    07:00 +24°C° 0 mm 2 mps 760 mmHg 69%
    08:00 +26°C° 0 mm 2 mps 761 mmHg 64%
    09:00 +27°C° 0 mm 2 mps 762 mmHg 58%
    10:00 +29°C° 0 mm 2 mps 761 mmHg 54%
    11:00 +30°C° 0 mm 2 mps 761 mmHg 49%
    12:00 +31°C° 0 mm 1 mps 761 mmHg 45%
    13:00 +32°C° 0 mm 1 mps 760 mmHg 43%
    14:00 +32°C° 0 mm 1 mps 759 mmHg 42%
    15:00 +32°C° 0 mm 1 mps 759 mmHg 40%
    16:00 +30°C° 0 mm 1 mps 759 mmHg 44%
    17:00 +28°C° 0 mm 1 mps 759 mmHg 48%
    18:00 +27°C° 0 mm 1 mps 759 mmHg 51%
    19:00 +26°C° 0 mm 1 mps 760 mmHg 54%
    20:00 +25°C° 0 mm 1 mps 760 mmHg 57%
    21:00 +24°C° 0 mm 1 mps 761 mmHg 60%
    22:00 +24°C° 0 mm 1 mps 760 mmHg 64%
    23:00 +24°C° 0 mm 1 mps 760 mmHg 67%

    20 November, Tuesday

    Time Temperature Precipitation Wind Pressure Humidity
    00:00 +23°C° 0 mm 1 mps 760 mmHg 71%
    01:00 +23°C° 0 mm 1 mps 760 mmHg 72%
    02:00 +23°C° 0 mm 1 mps 759 mmHg 73%
    03:00 +22°C° 0 mm 1 mps 759 mmHg 74%
    04:00 +22°C° 0 mm 1 mps 759 mmHg 73%
    05:00 +21°C° 0 mm 2 mps 759 mmHg 72%
    06:00 +20°C° 0 mm 2 mps 760 mmHg 70%
    07:00 +23°C° 0 mm 2 mps 760 mmHg 65%
    08:00 +25°C° 0 mm 2 mps 761 mmHg 60%
    09:00 +26°C° 0 mm 2 mps 762 mmHg 54%
    10:00 +28°C° 0 mm 2 mps 761 mmHg 50%
    11:00 +29°C° 0 mm 1 mps 761 mmHg 46%
    12:00 +31°C° 0 mm 1 mps 760 mmHg 42%
    13:00 +31°C° 0 mm 1 mps 760 mmHg 41%
    14:00 +31°C° 0 mm 1 mps 759 mmHg 41%
    15:00 +31°C° 0 mm 1 mps 758 mmHg 40%
    16:00 +30°C° 0 mm 1 mps 758 mmHg 44%
    17:00 +28°C° 0 mm 1 mps 758 mmHg 47%
    18:00 +26°C° 0 mm 1 mps 759 mmHg 51%
    19:00 +26°C° 0 mm 1 mps 759 mmHg 52%
    20:00 +25°C° 0 mm 1 mps 760 mmHg 54%
    21:00 +24°C° 0 mm 1 mps 760 mmHg 56%
    22:00 +24°C° 0 mm 1 mps 760 mmHg 59%
    23:00 +23°C° 0 mm 1 mps 760 mmHg 63%

    21 November, Wednesday

    Time Temperature Precipitation Wind Pressure Humidity
    00:00 +23°C° 0 mm 1 mps 760 mmHg 67%
    01:00 +23°C° 0 mm 1 mps 760 mmHg 68%
    02:00 +22°C° 0 mm 1 mps 759 mmHg 68%
    03:00 +22°C° 0 mm 1 mps 759 mmHg 69%
    04:00 +21°C° 0 mm 2 mps 759 mmHg 69%
    05:00 +20°C° 0 mm 2 mps 760 mmHg 69%
    06:00 +20°C° 0 mm 2 mps 760 mmHg 68%
    07:00 +23°C° 0 mm 2 mps 760 mmHg 63%
    08:00 +25°C° 0 mm 2 mps 761 mmHg 58%
    09:00 +26°C° 0 mm 2 mps 762 mmHg 53%
    10:00 +28°C° 0 mm 2 mps 761 mmHg 48%
    11:00 +29°C° 0 mm 2 mps 760 mmHg 43%
    12:00 +30°C° 0 mm 2 mps 760 mmHg 37%
    13:00 +31°C° 0 mm 3 mps 759 mmHg 36%
    14:00 +31°C° 0 mm 3 mps 759 mmHg 35%
    15:00 +31°C° 0 mm 3 mps 758 mmHg 33%
    16:00 +29°C° 0 mm 3 mps 758 mmHg 36%
    17:00 +27°C° 0 mm 2 mps 758 mmHg 39%
    18:00 +25°C° 0 mm 2 mps 758 mmHg 42%
    19:00 +24°C° 0 mm 2 mps 759 mmHg 44%
    20:00 +24°C° 0 mm 2 mps 759 mmHg 46%
    21:00 +23°C° 0 mm 2 mps 760 mmHg 47%
    22:00 +21°C° 0 mm 2 mps 760 mmHg 50%
    23:00 +21°C° 0 mm 2 mps 760 mmHg 54%

    22 November, Thursday

    Time Temperature Precipitation Wind Pressure Humidity
    00:00 +20°C° 0 mm 2 mps 760 mmHg 57%
    01:00 +20°C° 0 mm 2 mps 759 mmHg 59%
    02:00 +19°C° 0 mm 2 mps 759 mmHg 61%
    03:00 +19°C° 0 mm 2 mps 759 mmHg 64%
    04:00 +19°C° 0 mm 2 mps 759 mmHg 65%
    05:00 +18°C° 0 mm 2 mps 760 mmHg 67%
    06:00 +18°C° 0 mm 2 mps 760 mmHg 68%
    07:00 +20°C° 0 mm 2 mps 760 mmHg 63%
    08:00 +23°C° 0 mm 2 mps 761 mmHg 59%
    09:00 +25°C° 0 mm 2 mps 761 mmHg 54%
    10:00 +27°C° 0 mm 2 mps 761 mmHg 48%
    11:00 +28°C° 0 mm 3 mps 760 mmHg 43%
    12:00 +30°C° 0 mm 3 mps 760 mmHg 38%
    13:00 +30°C° 0 mm 3 mps 759 mmHg 38%
    14:00 +30°C° 0 mm 3 mps 759 mmHg 38%
    15:00 +30°C° 0 mm 3 mps 758 mmHg 38%
    16:00 +28°C° 0 mm 3 mps 758 mmHg 42%
    17:00 +26°C° 0 mm 2 mps 758 mmHg 46%
    18:00 +24°C° 0 mm 2 mps 758 mmHg 50%
    19:00 +23°C° 0 mm 2 mps 759 mmHg 52%
    20:00 +23°C° 0 mm 2 mps 759 mmHg 53%
    21:00 +21°C° 0 mm 2 mps 760 mmHg 55%
    22:00 +21°C° 0 mm 2 mps 759 mmHg 57%
    23:00 +20°C° 0 mm 2 mps 759 mmHg 59%
    Show more